sat.trackr.live / text

‹ back to catalog

KUIPER-00098

NORAD 65137 · 2025-171F

PAYLOAD ACTIVE UNKNOWN

§ Identity

Operator
Country
US
Launch date
2025-08-11
Launch site
AFETR
Launch vehicle
Mass (kg)
RCS (m²)

External: N2YO · Heavens-Above · Gunter

§ Orbital elements

Epoch: 2026-05-24T20:17:47.115744Z

Period
97.30 min
Inclination
51.8993°
Eccentricity
0.0000310
Mean motion
14.79940463 rev/d
Perigee alt
629.3 km
Apogee alt
629.7 km
Semi-major
7,007.6 km
B*
2.9223e-4
RAAN
186.3303°
Arg perigee
65.3640°
Mean anomaly
294.7354°
Rev number
4,344

§ Raw data

KUIPER-000981 65137U 25171F   26144.84568421  .00002008  00000+0  29223-3 0  99932 65137  51.8993 186.3303 0000310  65.3640 294.7354 14.79940463 43447

JSON: /api/v1/satellites/65137 · /tle

For live sub-satellite position, see the globe view (requires WebGL).

§ Visibility from observer

Set your observer location to see the next 7 days of passes ≥ 10°. The values pass through the URL so the page stays shareable.

No JS? Fill the form by hand. The geolocation button needs JavaScript.